1535508000.39,1826,18.75,74254.3,0.97,-11.63,-12.53,0,*7E
1535508001.64,1827,18.75,74256.0,0.99,-11.63,-12.93,0,*7D
1535508002.83,1828,18.75,74258.0,0.97,-12.03,-13.47,0,*71
1535508004.07,1829,18.75,74256.0,0.99,-12.29,-13.79,0,*7B
1535508005.32,1830,18.75,74256.3,0.97,-12.75,-14.01,0,*7C
1535508006.6,1831,18.75,74256.5,0.99,-13.29,-14.47,0,*79
1535508007.8,1832,18.81,74258.5,0.97,-13.93,-15.07,0,*70
1535508009.02,1833,18.75,74252.0,0.99,-14.65,-15.53,0,*70
1535508010.25,1834,18.75,74252.0,0.99,-15.15,-15.95,0,*7B
1535508011.47,1835,18.75,74256.5,0.99,-15.63,-16.37,0,*70
1535508012.67,1836,18.75,74256.0,0.97,-15.53,-15.95,0,*75
1535508013.94,1837,18.75,74256.5,0.99,-15.35,-15.89,0,*77
1535508015.14,1838,18.75,74254.5,0.97,-15.25,-15.95,0,*7A
1535508016.37,1839,18.75,74252.8,0.97,-15.49,-15.81,0,*74
1535508017.57,1840,18.75,74256.3,0.97,-15.15,-15.07,0,*7D
1535508018.81,1841,18.81,74256.0,0.99,-15.01,-14.89,0,*70
1535508020.02,1842,18.81,74258.3,0.97,-15.01,-14.61,0,*7B
1535508021.24,1843,18.75,74252.0,0.97,-14.51,-13.93,0,*74
1535508022.49,1844,18.75,74256.0,0.99,-13.61,-13.15,0,*77
1535508023.71,1845,18.75,74254.3,0.97,-13.01,-12.93,0,*71
1535508024.96,1846,18.75,74252.8,0.97,-12.65,-12.79,0,*75
1535508026.18,1847,18.75,74256.8,0.97,-12.39,-12.75,0,*71
1535508027.44,1848,18.75,74252.3,0.99,-12.21,-12.75,0,*79
1535508028.69,1849,18.75,74254.3,0.97,-12.07,-12.75,0,*72
1535508029.95,1850,18.75,74254.0,0.99,-11.93,-12.47,0,*7B
1535508031.2,1851,18.75,74254.8,0.97,-11.89,-12.53,0,*7A
1535508032.45,1852,18.75,74250.8,0.97,-11.93,-12.61,0,*73
1535508033.68,1853,18.75,74254.5,0.97,-11.93,-12.47,0,*76
1535508034.93,1854,18.75,74252.8,0.99,-11.63,-12.21,0,*70
1535508036.16,1855,18.75,74252.3,0.97,-11.55,-12.29,0,*72
1535508037.44,1856,18.75,74252.3,0.99,-11.63,-12.53,0,*77
1535508038.71,1857,18.75,74250.8,0.99,-11.77,-12.79,0,*7B
1535508039.99,1858,18.75,74254.0,0.99,-11.89,-12.75,0,*79
1535508041.24,1859,18.75,74254.3,0.97,-11.77,-12.79,0,*7B
1535508042.48,1860,18.75,74254.8,0.99,-11.77,-13.15,0,*74
1535508043.75,1861,18.75,74250.3,0.99,-11.81,-13.37,0,*7C
1535508044.99,1862,18.75,74254.3,0.99,-12.03,-13.87,0,*7D
1535508046.24,1863,18.75,74252.5,0.99,-12.39,-14.75,0,*7F
1535508047.46,1864,18.75,74250.5,0.99,-12.93,-15.15,0,*7F
1535508048.71,1865,18.75,74252.3,0.99,-13.47,-15.39,0,*78
1535508049.95,1866,18.75,74248.3,0.99,-13.73,-15.53,0,*70
1535508051.2,1867,18.75,74250.5,0.99,-13.87,-15.49,0,*71
1535508052.46,1868,18.75,74252.8,0.99,-13.93,-15.39,0,*7C
1535508053.71,1869,18.75,74252.5,1.01,-13.97,-15.35,0,*45
1535508054.99,1870,18.75,74252.3,0.99,-14.01,-15.35,0,*75
1535508056.25,1871,18.75,74254.0,0.99,-14.19,-15.35,0,*7D
1535508057.53,1872,18.75,74252.5,0.99,-14.05,-15.39,0,*7F
1535508058.78,1873,18.75,74252.3,1.01,-13.87,-15.01,0,*48
1535508060.06,1874,18.75,74254.0,0.99,-13.37,-15.01,0,*74
1535508061.28,1875,18.75,74252.3,0.97,-12.93,-14.79,0,*7A
1535508062.53,1876,18.75,74252.0,0.99,-13.47,-15.39,0,*7A
1535508063.73,1877,18.75,74252.5,0.97,-14.33,-15.75,0,*79
1535508064.98,1878,18.75,74252.5,0.99,-13.93,-15.35,0,*71
1535508066.2,1879,18.75,74252.3,0.97,-13.79,-15.07,0,*7B
1535508067.47,1880,18.75,74254.8,0.99,-14.15,-15.39,0,*73
1535508068.72,1881,18.75,74256.0,0.99,-14.01,-15.07,0,*7A
1535508069.94,1882,18.75,74250.8,0.97,-14.61,-15.89,0,*77
1535508071.21,1883,18.75,74254.0,0.99,-14.47,-15.95,0,*71
1535508072.4,1884,18.75,74258.0,0.97,-14.89,-16.37,0,*71
1535508073.62,1885,18.75,74252.5,0.97,-15.15,-16.27,0,*75
1535508074.83,1886,18.75,74258.5,0.97,-15.01,-16.41,0,*73
1535508076.05,1887,18.75,74256.8,0.97,-15.63,-16.69,0,*7C
1535508077.25,1888,18.75,74252.5,0.97,-15.75,-16.79,0,*75
1535508078.45,1889,18.75,74252.5,0.97,-15.63,-16.55,0,*7D
1535508079.65,1890,18.75,74256.8,0.97,-15.49,-16.41,0,*78
1535508080.85,1891,18.75,74256.8,0.97,-14.89,-15.95,0,*7E
1535508082.08,1892,18.75,74256.3,0.97,-14.47,-15.75,0,*71
1535508083.34,1893,18.75,74258.0,0.97,-14.47,-15.89,0,*73
1535508084.59,1894,18.75,74258.0,0.99,-14.75,-15.75,0,*78
1535508085.79,1895,18.75,74256.5,0.97,-15.25,-16.55,0,*72
1535508086.98,1896,18.75,74258.5,0.97,-15.67,-16.55,0,*77
1535508088.2,1897,18.75,74254.5,0.97,-15.15,-16.23,0,*72
1535508089.4,1898,18.75,74252.5,0.93,-15.67,-16.59,0,*71
1535508090.6,1899,18.75,74254.5,0.93,-15.71,-16.59,0,*77
1535508091.88,1900,18.75,74252.3,0.91,-15.43,-16.31,0,*7B
1535508093.12,1901,18.75,74254.0,0.93,-15.21,-16.17,0,*78
1535508094.31,1902,18.75,74258.3,0.93,-15.53,-16.45,0,*79
1535508095.53,1903,18.75,74256.8,0.93,-15.53,-16.31,0,*7B
1535508096.76,1904,18.75,74258.3,0.93,-15.53,-16.17,0,*78
1535508097.98,1905,18.75,74258.8,0.93,-15.29,-16.27,0,*77
1535508099.23,1906,18.75,74256.0,0.91,-14.65,-15.43,0,*7E
1535508100.45,1907,18.75,74254.5,0.93,-15.11,-16.09,0,*72
1535508101.67,1908,18.75,74256.8,0.91,-15.29,-15.99,0,*7E
1535508102.92,1909,18.75,74256.0,0.91,-15.11,-16.09,0,*7E
1535508104.16,1910,18.75,74252.3,0.91,-14.97,-15.99,0,*73
1535508105.4,1911,18.75,74256.5,0.91,-14.97,-15.99,0,*72
1535508106.67,1912,18.75,74252.3,0.91,-14.79,-15.85,0,*7C
1535508107.91,1913,18.75,74256.3,0.91,-15.11,-16.31,0,*7E
1535508109.11,1914,18.75,74252.5,0.93,-15.25,-15.99,0,*7D
1535508110.38,1915,18.75,74254.3,0.91,-15.21,-16.09,0,*70
1535508111.63,1916,18.75,74254.3,0.91,-15.29,-16.09,0,*7B
1535508112.91,1917,18.75,74254.0,0.91,-15.43,-16.09,0,*76
1535508114.14,1918,18.75,74258.3,0.91,-15.25,-15.53,0,*75
1535508115.36,1919,18.75,74252.8,0.93,-14.19,-14.43,0,*78
1535508116.59,1920,18.75,74256.3,0.91,-14.11,-15.11,0,*7E
1535508117.86,1921,18.75,74254.5,0.91,-14.93,-15.43,0,*72
1535508119.09,1922,18.75,74254.3,0.91,-14.11,-14.37,0,*79
1535508120.33,1923,18.75,74258.0,0.91,-14.19,-14.65,0,*77
1535508121.6,1924,18.75,74254.8,0.91,-14.51,-14.51,0,*7B
1535508122.85,1925,18.75,74256.8,0.91,-14.55,-14.37,0,*7E
1535508124.1,1926,18.75,74254.5,0.91,-14.79,-14.23,0,*76
1535508125.35,1927,18.75,74252.3,0.93,-14.51,-13.79,0,*77
1535508126.59,1928,18.75,74254.8,0.91,-13.79,-12.97,0,*76
1535508127.82,1929,18.75,74256.5,0.91,-13.55,-12.93,0,*7D
1535508129.04,1930,18.75,74252.3,0.93,-13.43,-12.53,0,*7C
1535508130.27,1931,18.75,74254.5,0.91,-13.65,-12.39,0,*77
1535508131.52,1932,18.75,74252.8,0.91,-13.69,-12.07,0,*75
1535508132.77,1933,18.75,74256.5,0.91,-13.43,-11.55,0,*78
1535508133.99,1934,18.75,74256.8,0.91,-13.07,-11.15,0,*7B
1535508135.24,1935,18.75,74254.5,0.93,-12.71,-10.75,0,*7F
1535508136.46,1936,18.75,74258.5,0.93,-12.11,-10.31,0,*7A
1535508137.71,1937,18.75,74256.8,0.91,-11.51,-9.75,0,*46
1535508138.9,1938,18.75,74258.5,0.93,-10.97,-9.75,0,*40
1535508140.12,1939,18.75,74258.5,0.91,-10.57,-9.71,0,*4B
1535508141.33,1940,18.75,74254.8,0.93,-9.93,-9.49,0,*7C
1535508142.54,1941,18.75,74256.0,0.93,-9.45,-9.23,0,*7A
1535508143.75,1942,18.75,74254.8,0.93,-8.97,-9.61,0,*71
1535508144.95,1943,18.75,74254.0,0.93,-9.05,-10.19,0,*4D
1535508146.17,1944,18.75,74254.3,0.93,-9.11,-10.31,0,*45
1535508147.37,1945,18.75,74252.0,0.93,-9.05,-10.45,0,*42
1535508148.59,1946,18.75,74256.3,0.93,-8.97,-10.71,0,*4C
1535508149.78,1947,18.75,74252.0,0.97,-8.93,-11.11,0,*4A
1535508151.0,1948,18.75,74252.8,0.93,-9.19,-11.51,0,*46
1535508152.22,1949,18.75,74254.3,0.93,-9.19,-11.51,0,*47
1535508153.41,1950,18.75,74252.5,0.97,-9.05,-11.45,0,*43
1535508154.62,1951,18.75,74256.3,0.99,-9.89,-12.47,0,*49
1535508155.82,1952,18.75,74256.3,0.97,-10.35,-12.89,0,*79
1535508157.01,1953,18.75,74256.3,0.97,-11.19,-13.65,0,*74
1535508158.3,1954,18.75,74254.3,0.99,-11.93,-14.01,0,*7A
1535508159.51,1955,18.75,74254.5,0.99,-12.39,-13.93,0,*74
1535508160.75,1956,18.75,74256.0,0.97,-12.61,-13.33,0,*7E
1535508162.0,1957,18.75,74254.8,0.97,-12.61,-13.33,0,*7F
1535508163.27,1958,18.75,74258.0,0.99,-12.79,-13.29,0,*7C
1535508164.52,1959,18.75,74254.0,0.99,-12.53,-12.93,0,*75
1535508165.77,1960,18.75,74254.8,0.97,-12.53,-13.01,0,*7B
1535508166.99,1961,18.75,74256.8,0.97,-12.61,-12.93,0,*71
1535508168.18,1962,18.75,74256.0,0.97,-12.39,-12.47,0,*76
1535508169.43,1963,18.75,74256.0,0.99,-12.03,-11.89,0,*71
1535508170.68,1964,18.75,74256.5,0.97,-11.63,-12.07,0,*78
1535508171.93,1965,18.75,74256.3,0.97,-11.77,-12.35,0,*7D
1535508173.21,1966,18.75,74254.3,0.99,-11.33,-12.35,0,*70
1535508174.43,1967,18.75,74254.0,0.97,-11.33,-12.29,0,*72
1535508175.66,1968,18.75,74256.0,0.97,-11.23,-12.53,0,*71
1535508176.88,1969,18.75,74256.8,0.97,-11.23,-12.65,0,*75
1535508178.13,1970,18.75,74256.5,0.99,-11.51,-12.93,0,*7F
1535508179.35,1971,18.75,74256.0,0.97,-11.63,-13.07,0,*7D
1535508180.57,1972,18.75,74252.3,0.97,-11.67,-12.89,0,*7D
1535508181.82,1973,18.75,74256.0,0.97,-11.67,-12.65,0,*7E
1535508183.07,1974,18.75,74256.8,0.99,-11.55,-12.47,0,*76
1535508184.29,1975,18.75,74258.5,0.97,-11.33,-12.03,0,*79
1535508185.51,1976,18.75,74258.5,0.97,-11.07,-11.45,0,*7C
1535508186.8,1977,18.75,74256.8,0.99,-10.67,-10.63,0,*71
1535508188.05,1978,18.75,74258.3,0.99,-10.27,-10.41,0,*7A
1535508189.26,1979,18.75,74258.8,0.97,-9.89,-10.71,0,*4A
1535508190.48,1980,18.75,74258.8,0.99,-9.75,-10.93,0,*4D
1535508191.7,1981,18.75,74258.0,0.97,-9.71,-10.71,0,*4A
1535508192.94,1982,18.75,74254.8,0.99,-9.53,-10.93,0,*4B
1535508194.18,1983,18.75,74254.0,0.99,-9.31,-10.71,0,*42
1535508195.44,1984,18.75,74258.8,0.99,-8.85,-10.41,0,*48
1535508196.69,1985,18.75,74258.3,0.99,-8.45,-10.63,0,*45
1535508197.88,1986,18.75,74262.0,0.97,-8.59,-11.23,0,*40
1535508199.13,1987,18.75,74254.8,0.99,-9.27,-12.35,0,*43
1535508200.32,1988,18.75,74260.3,1.01,-10.09,-13.15,0,*4B
1535508201.56,1989,18.75,74258.0,1.01,-10.67,-13.83,0,*4D
1535508202.78,1990,18.75,74256.0,1.01,-11.51,-14.11,0,*4D
1535508204.06,1991,18.75,74258.5,0.99,-12.07,-14.51,0,*78
1535508205.33,1992,18.75,74258.0,0.99,-13.01,-14.93,0,*72
1535508206.59,1993,18.75,74256.0,0.99,-13.79,-15.49,0,*7A
1535508207.83,1994,18.75,74256.3,0.99,-14.15,-15.53,0,*7B
1535508209.05,1995,18.75,74256.0,1.01,-14.43,-15.63,0,*4A
1535508210.28,1996,18.75,74256.0,0.97,-14.79,-15.75,0,*79
1535508211.49,1997,18.75,74258.3,1.01,-14.97,-15.63,0,*41
1535508212.69,1998,18.75,74256.0,0.97,-15.07,-15.75,0,*7F
1535508213.91,1999,18.75,74254.8,0.97,-15.35,-15.75,0,*7F
1535508215.11,2000,18.75,74252.8,0.97,-15.49,-15.75,0,*7E
1535508216.34,2001,18.75,74252.8,0.97,-15.39,-15.53,0,*7C
1535508217.56,2002,18.75,74252.8,0.97,-15.39,-15.53,0,*7F
1535508218.76,2003,18.75,74254.8,0.97,-15.49,-15.63,0,*7A
1535508219.98,2004,18.75,74254.5,0.93,-15.43,-15.67,0,*77
1535508221.17,2005,18.75,74256.0,0.97,-15.49,-15.67,0,*78
1535508222.36,2006,18.75,74254.8,0.97,-15.49,-15.67,0,*7B
1535508223.56,2007,18.75,74252.5,0.97,-15.53,-15.67,0,*71
1535508224.76,2008,18.75,74254.5,0.97,-15.63,-15.75,0,*7E
1535508225.95,2009,18.75,74254.5,0.93,-15.67,-15.71,0,*7B
1535508227.15,2010,18.75,74252.8,0.97,-15.75,-15.67,0,*73
1535508228.37,2011,18.75,74254.3,0.93,-15.67,-15.57,0,*76
1535508229.59,2012,18.75,74252.8,0.93,-15.67,-15.57,0,*75
1535508230.79,2013,18.75,74254.3,0.93,-15.71,-15.53,0,*77
1535508232.04,2014,18.75,74252.3,0.93,-15.57,-15.43,0,*75
1535508233.32,2015,18.75,74254.3,0.91,-15.57,-15.43,0,*76
1535508234.56,2016,18.75,74250.3,0.93,-15.43,-15.57,0,*77
1535508235.81,2017,18.75,74248.5,0.91,-15.43,-15.67,0,*77
1535508237.06,2018,18.75,74250.3,0.91,-15.43,-15.71,0,*7F
1535508238.34,2019,18.75,74250.8,0.91,-15.43,-15.81,0,*71
1535508239.59,2020,18.75,74250.3,0.93,-15.43,-15.81,0,*79
1535508240.82,2021,18.75,74254.0,0.91,-15.53,-15.95,0,*7E
1535508242.06,2022,18.75,74250.3,0.91,-15.57,-15.95,0,*79
1535508243.31,2023,18.75,74252.3,0.93,-15.57,-15.85,0,*7B
1535508244.57,2024,18.75,74252.0,0.91,-15.53,-15.81,0,*7E
1535508245.82,2025,18.75,74250.5,0.91,-15.67,-15.81,0,*78
1535508247.07,2026,18.75,74250.5,0.91,-15.57,-15.71,0,*77
1535508248.32,2027,18.75,74252.8,0.91,-15.67,-15.81,0,*7A
1535508249.57,2028,18.75,74250.3,0.91,-15.71,-15.81,0,*72
1535508250.82,2029,18.75,74250.5,0.91,-15.71,-15.81,0,*73
1535508252.07,2030,18.75,74248.8,0.91,-15.85,-15.71,0,*7F
1535508253.35,2031,18.75,74254.3,0.91,-15.81,-15.57,0,*7E
1535508254.59,2032,18.75,74254.0,0.91,-15.85,-15.67,0,*7A
1535508255.84,2033,18.75,74252.8,0.91,-15.71,-15.57,0,*73
1535508257.07,2034,18.75,74254.3,0.93,-15.81,-15.53,0,*7D
1535508258.32,2035,18.75,74254.3,0.91,-15.85,-15.53,0,*7A
1535508259.55,2036,18.75,74248.5,0.91,-15.67,-15.29,0,*78
1535508260.78,2037,18.75,74250.0,0.91,-15.67,-15.29,0,*79
1535508262.03,2038,18.75,74248.5,0.91,-15.43,-15.07,0,*7C
1535508263.23,2039,18.75,74250.5,0.89,-15.25,-14.89,0,*73
1535508264.44,2040,18.75,74248.0,0.89,-15.11,-14.75,0,*79
1535508265.69,2041,18.75,74252.3,0.91,-14.93,-14.65,0,*7B
1535508266.93,2042,18.75,74254.3,0.91,-14.97,-14.65,0,*7C
1535508268.2,2043,18.75,74250.3,0.91,-14.93,-14.51,0,*7E
1535508269.45,2044,18.75,74248.5,0.89,-14.83,-14.47,0,*76
1535508270.67,2045,18.75,74250.3,0.89,-14.83,-14.33,0,*74
1535508271.89,2046,18.75,74250.8,0.87,-14.89,-14.33,0,*73
1535508273.08,2047,18.75,74252.8,0.89,-14.69,-14.29,0,*79
1535508274.26,2048,18.75,74248.8,0.89,-14.69,-14.29,0,*76
1535508275.49,2049,18.75,74248.0,0.89,-14.55,-14.15,0,*77
1535508276.68,2050,18.75,74248.3,0.89,-14.61,-14.23,0,*7D
1535508277.86,2051,18.75,74250.3,0.89,-14.69,-14.29,0,*7E
1535508279.07,2052,18.75,74250.8,0.89,-14.69,-14.43,0,*71
1535508280.3,2053,18.75,74250.0,0.89,-14.75,-14.43,0,*7D
1535508281.54,2054,18.75,74250.0,0.89,-14.83,-14.43,0,*73
1535508282.76,2055,18.75,74248.8,0.87,-14.89,-14.33,0,*71
1535508283.98,2056,18.75,74252.3,0.87,-14.89,-14.37,0,*76
1535508285.2,2057,18.75,74248.3,0.89,-14.75,-14.23,0,*7F
1535508286.38,2058,18.75,74250.3,0.89,-14.69,-14.15,0,*78
1535508287.61,2059,18.75,74246.5,0.89,-14.47,-14.23,0,*70
1535508288.81,2060,18.75,74246.3,0.89,-14.61,-14.15,0,*7B
1535508290.03,2061,18.75,74250.0,0.89,-14.47,-14.29,0,*71
1535508291.25,2062,18.75,74250.0,0.89,-14.43,-14.29,0,*76
1535508292.45,2063,18.75,74248.8,0.89,-14.33,-14.23,0,*7A
1535508293.65,2064,18.75,74246.3,0.89,-14.23,-14.15,0,*79
1535508294.88,2065,18.75,74248.3,0.89,-14.01,-14.15,0,*78
1535508296.08,2066,18.75,74244.0,0.89,-14.15,-14.23,0,*7B
1535508297.33,2067,18.75,74244.3,0.87,-14.05,-14.19,0,*7C
1535508298.56,2068,18.75,74250.3,0.89,-14.01,-14.23,0,*70
1535508299.78,2069,18.75,74246.5,0.89,-14.01,-14.29,0,*7B
1535508301.01,2070,18.75,74246.0,0.89,-13.97,-14.23,0,*71
1535508302.23,2071,18.75,74248.3,0.89,-14.01,-14.33,0,*79
1535508303.46,2072,18.75,74244.0,0.89,-13.87,-14.23,0,*72
1535508304.68,2073,18.75,74244.3,0.89,-13.87,-14.15,0,*76
1535508305.93,2074,18.75,74248.0,0.87,-14.15,-14.51,0,*73
1535508307.13,2075,18.75,74248.8,0.89,-14.11,-14.61,0,*7B
1535508308.35,2076,18.75,74250.3,0.89,-14.33,-14.75,0,*7D
1535508309.6,2077,18.75,74250.8,0.89,-14.47,-14.83,0,*76
1535508310.85,2078,18.75,74248.8,0.89,-14.75,-14.83,0,*78
1535508312.11,2079,18.75,74250.0,0.87,-14.93,-14.93,0,*7E
1535508313.34,2080,18.75,74246.0,0.87,-15.29,-14.89,0,*73
1535508314.58,2081,18.75,74246.5,0.87,-15.29,-14.79,0,*7D
1535508315.81,2082,18.75,74250.0,0.87,-15.29,-14.65,0,*73
1535508317.0,2083,18.75,74250.3,0.89,-15.29,-14.69,0,*70
1535508318.22,2084,18.75,74246.5,0.87,-15.49,-14.65,0,*73
1535508319.46,2085,18.75,74246.8,0.89,-15.39,-14.43,0,*7F
1535508320.7,2086,18.75,74244.3,0.87,-15.49,-14.51,0,*76
1535508321.92,2087,18.75,74250.3,0.89,-15.35,-14.33,0,*76
1535508323.16,2088,18.75,74244.5,0.87,-15.35,-14.37,0,*73
1535508324.36,2089,18.75,74248.5,0.89,-15.25,-14.23,0,*78
1535508325.59,2090,18.75,74250.0,0.87,-15.21,-14.19,0,*73
1535508326.83,2091,18.75,74246.3,0.87,-15.21,-14.19,0,*72
1535508328.04,2092,18.75,74248.3,0.89,-15.01,-14.15,0,*71
1535508329.23,2093,18.75,74246.8,0.85,-15.07,-14.15,0,*7A
1535508330.47,2094,18.75,74244.8,0.87,-15.01,-14.33,0,*7D
1535508331.69,2095,18.75,74246.8,0.87,-15.07,-14.29,0,*71
1535508332.92,2096,18.75,74246.5,0.87,-15.01,-14.37,0,*7B
1535508334.14,2097,18.75,74244.8,0.89,-15.15,-14.47,0,*76
1535508335.36,2098,18.75,74246.8,0.87,-15.29,-14.61,0,*7C
1535508336.61,2099,18.75,74246.0,0.87,-15.49,-14.75,0,*7E
1535508337.83,2100,18.75,74246.3,0.87,-15.49,-14.65,0,*7E
1535508339.05,2101,18.75,74244.5,0.87,-15.29,-14.29,0,*71
1535508340.26,2102,18.75,74246.0,0.87,-15.07,-14.19,0,*7D
1535508341.52,2103,18.75,74246.8,0.87,-15.01,-14.05,0,*77
1535508342.75,2104,18.75,74248.3,0.87,-15.01,-13.93,0,*78
1535508344.0,2105,18.75,74246.5,0.89,-14.83,-13.87,0,*79
1535508345.21,2106,18.75,74242.8,0.85,-14.79,-13.93,0,*76
1535508346.42,2107,18.75,74246.8,0.85,-14.65,-13.87,0,*7F
1535508347.69,2108,18.75,74246.3,0.87,-14.51,-13.87,0,*75
1535508348.96,2109,18.75,74248.5,0.87,-14.47,-13.79,0,*72
1535508350.19,2110,18.75,74244.3,0.85,-14.47,-13.73,0,*72
1535508351.39,2111,18.75,74244.8,0.85,-14.19,-13.73,0,*78
1535508352.61,2112,18.75,74244.0,0.85,-14.05,-13.73,0,*76
1535508353.83,2113,18.75,74244.8,0.85,-14.05,-13.93,0,*79
1535508355.09,2114,18.75,74246.3,0.87,-14.01,-14.15,0,*71
1535508356.32,2115,18.75,74248.3,0.87,-14.15,-14.37,0,*75
1535508357.54,2116,18.75,74246.5,0.87,-14.19,-14.61,0,*79
1535508358.79,2117,18.75,74246.5,0.87,-14.29,-14.75,0,*7E
1535508360.03,2118,18.75,74246.3,0.87,-14.61,-15.21,0,*7D
1535508361.3,2119,18.75,74246.8,0.87,-14.79,-15.35,0,*70
1535508362.54,2120,18.75,74246.8,0.87,-14.93,-15.63,0,*7D
1535508363.76,2121,18.75,74244.5,0.85,-15.07,-15.81,0,*7E
1535508364.96,2122,18.75,74244.5,0.85,-15.15,-15.75,0,*75
1535508366.17,2123,18.75,74246.0,0.85,-15.21,-15.67,0,*70
1535508367.42,2124,18.75,74242.5,0.87,-15.07,-15.39,0,*7A
1535508368.64,2125,18.75,74244.8,0.87,-14.89,-15.07,0,*71
1535508369.83,2126,18.75,74246.8,0.85,-14.89,-15.07,0,*70
1535508371.08,2127,18.75,74246.0,0.87,-14.75,-15.07,0,*70
1535508372.3,2128,18.75,74244.8,0.87,-14.61,-14.89,0,*7D
1535508373.5,2129,18.75,74246.0,0.85,-14.61,-14.89,0,*7E
1535508374.72,2130,18.75,74246.5,0.85,-14.65,-14.79,0,*7D
1535508375.96,2131,18.75,74248.0,0.85,-14.75,-14.75,0,*71
1535508377.15,2132,18.75,74242.5,0.85,-14.65,-14.61,0,*76
1535508378.38,2133,18.75,74244.3,0.85,-14.51,-14.65,0,*74
1535508379.63,2134,18.75,74246.3,0.85,-14.51,-14.79,0,*7E
1535508380.86,2135,18.75,74244.8,0.85,-14.51,-15.07,0,*77
1535508382.08,2136,18.75,74244.5,0.83,-14.65,-15.07,0,*75
1535508383.27,2137,18.75,74244.5,0.85,-14.65,-15.07,0,*72
1535508384.47,2138,18.75,74246.8,0.85,-14.65,-15.29,0,*71
1535508385.68,2139,18.75,74244.3,0.85,-14.65,-15.29,0,*70
1535508386.89,2140,18.75,74244.3,0.85,-14.79,-15.63,0,*7D
1535508388.17,2141,18.75,74244.3,0.83,-14.97,-15.81,0,*76
1535508389.36,2142,18.75,74248.3,0.85,-14.89,-15.75,0,*77
1535508390.61,2143,18.75,74244.5,0.83,-14.97,-15.95,0,*71
1535508391.87,2144,18.75,74246.8,0.83,-15.21,-16.23,0,*74
1535508393.07,2145,18.75,74246.8,0.85,-15.29,-16.41,0,*7F
1535508394.32,2146,18.75,74248.5,0.85,-15.39,-16.65,0,*7B
1535508395.57,2147,18.75,74248.3,0.83,-15.57,-16.75,0,*75
1535508396.77,2148,18.75,74248.0,0.85,-15.63,-16.79,0,*77
1535508398.02,2149,18.75,74244.5,0.83,-15.95,-17.03,0,*75
1535508399.27,2150,18.75,74244.3,0.83,-16.09,-16.97,0,*77
1535508400.52,2151,18.75,74246.3,0.83,-16.09,-16.97,0,*76
1535508401.77,2152,18.75,74246.5,0.85,-16.27,-17.07,0,*77
1535508403.03,2153,18.75,74244.8,0.83,-16.41,-17.03,0,*74
1535508404.27,2154,18.75,74242.5,0.83,-16.31,-16.97,0,*78
1535508405.51,2155,18.75,74244.5,0.83,-16.31,-16.89,0,*76
1535508406.74,2156,18.75,74246.0,0.83,-16.45,-16.97,0,*79
1535508407.96,2157,18.75,74244.0,0.83,-16.41,-16.89,0,*73
1535508409.21,2158,18.75,74246.8,0.83,-16.27,-16.89,0,*7C
1535508410.46,2159,18.75,74246.3,0.79,-16.45,-17.03,0,*7F
1535508411.69,2160,18.75,74246.5,0.81,-16.41,-17.03,0,*76
1535508412.91,2161,18.75,74246.0,0.81,-16.27,-16.83,0,*7E
1535508414.13,2162,18.75,74244.3,0.81,-16.27,-16.97,0,*78
1535508415.35,2163,18.75,74246.5,0.81,-16.31,-16.97,0,*7E
1535508416.55,2164,18.75,74244.8,0.81,-16.41,-16.97,0,*7E
1535508417.76,2165,18.75,74242.5,0.81,-16.31,-16.97,0,*78
1535508419.01,2166,18.75,74244.0,0.79,-16.31,-16.79,0,*7C
1535508420.22,2167,18.75,74246.0,0.81,-16.27,-16.89,0,*72
1535508421.47,2168,18.75,74248.0,0.79,-16.27,-16.89,0,*7A
1535508422.71,2169,18.75,74246.0,0.79,-16.27,-16.93,0,*70
1535508423.92,2170,18.75,74246.0,0.79,-16.45,-16.93,0,*7C
1535508425.14,2171,18.75,74246.3,0.79,-16.37,-16.93,0,*78
1535508426.38,2172,18.75,74244.3,0.79,-16.31,-16.89,0,*76
1535508427.6,2173,18.75,74244.3,0.81,-16.31,-16.75,0,*73
1535508428.87,2174,18.75,74246.3,0.79,-16.17,-16.65,0,*76
1535508430.12,2175,18.75,74244.8,0.79,-16.27,-16.59,0,*7B
1535508431.38,2176,18.75,74248.3,0.79,-16.17,-16.59,0,*7B
1535508432.62,2177,18.75,74240.8,0.79,-15.85,-16.37,0,*7A
1535508433.87,2178,18.75,74242.3,0.79,-15.75,-16.27,0,*7B
1535508435.09,2179,18.75,74244.5,0.81,-15.85,-16.41,0,*72
1535508436.34,2180,18.75,74246.5,0.79,-15.85,-16.37,0,*72
1535508437.57,2181,18.75,74244.5,0.79,-15.99,-16.65,0,*79
1535508438.8,2182,18.75,74244.5,0.79,-16.03,-16.75,0,*7B
1535508440.03,2183,18.75,74246.0,0.81,-16.09,-16.75,0,*77
1535508441.27,2184,18.75,74244.8,0.79,-16.27,-16.93,0,*73
1535508442.51,2185,18.75,74248.0,0.79,-16.17,-16.93,0,*71
1535508443.76,2186,18.75,74242.3,0.79,-16.37,-17.03,0,*78
1535508444.99,2187,18.75,74242.8,0.77,-16.45,-17.07,0,*76
1535508446.21,2188,18.75,74244.5,0.77,-16.59,-17.17,0,*75
1535508447.48,2189,18.75,74244.0,0.79,-16.65,-17.17,0,*75
1535508448.76,2190,18.75,74240.3,0.79,-16.51,-17.07,0,*7B
1535508449.98,2191,18.75,74240.0,0.77,-16.59,-17.17,0,*7D
1535508451.2,2192,18.75,74246.3,0.77,-16.59,-17.17,0,*7E
1535508452.45,2193,18.75,74240.8,0.77,-16.65,-17.07,0,*71
1535508453.68,2194,18.75,74246.0,0.77,-16.59,-17.07,0,*79
1535508454.91,2195,18.75,74246.3,0.77,-16.59,-17.07,0,*78
1535508456.14,2196,18.75,74242.3,0.77,-16.59,-17.07,0,*7B
1535508457.36,2197,18.75,74242.3,0.77,-16.45,-17.03,0,*73
1535508458.59,2198,18.75,74242.0,0.73,-16.51,-17.07,0,*79
1535508459.8,2199,18.75,74242.8,0.77,-16.31,-16.93,0,*76
1535508461.02,2200,18.75,74244.8,0.77,-16.31,-16.79,0,*71
1535508462.24,2201,18.75,74240.8,0.77,-16.17,-16.89,0,*7B
1535508463.45,2202,18.75,74242.3,0.77,-16.17,-16.89,0,*78
1535508464.71,2203,18.75,74244.5,0.77,-16.27,-17.07,0,*7D
1535508465.93,2204,18.75,74240.5,0.77,-16.37,-17.07,0,*7B
1535508467.16,2205,18.75,74242.3,0.73,-16.51,-17.11,0,*79
1535508468.37,2206,18.75,74240.0,0.73,-16.55,-17.21,0,*7D
1535508469.6,2207,18.75,74244.3,0.77,-16.59,-17.21,0,*74
1535508470.83,2208,18.75,74246.0,0.73,-16.65,-17.25,0,*74
1535508472.03,2209,18.75,74246.8,0.73,-16.59,-17.21,0,*7E
1535508473.27,2210,18.75,74244.3,0.73,-16.65,-17.11,0,*7A
1535508474.48,2211,18.75,74244.3,0.73,-16.55,-17.11,0,*78
1535508475.66,2212,18.75,74244.5,0.73,-16.41,-16.93,0,*75
1535508476.91,2213,18.75,74242.8,0.77,-16.17,-16.65,0,*7A
1535508478.13,2214,18.75,74240.8,0.73,-16.31,-16.69,0,*71
1535508479.37,2215,18.75,74240.0,0.73,-16.17,-16.69,0,*74
1535508480.58,2216,18.75,74242.0,0.73,-16.09,-16.79,0,*79
1535508481.81,2217,18.75,74246.5,0.73,-16.31,-17.07,0,*7B
1535508483.02,2218,18.75,74246.5,0.73,-16.41,-17.21,0,*77
1535508484.24,2219,18.75,74244.8,0.73,-16.41,-17.11,0,*75
1535508485.47,2220,18.75,74242.8,0.67,-16.45,-17.17,0,*78
1535508486.68,2221,18.75,74242.0,0.69,-16.45,-17.11,0,*71
1535508487.9,2222,18.75,74244.3,0.69,-16.55,-17.11,0,*73
1535508489.13,2223,18.75,74244.0,0.73,-16.51,-17.07,0,*7A
1535508490.34,2224,18.75,74246.0,0.73,-16.31,-16.83,0,*76
1535508491.58,2225,18.75,74244.0,0.69,-16.13,-16.69,0,*78
1535508492.78,2226,18.75,74246.3,0.69,-15.99,-16.65,0,*76
1535508493.99,2227,18.75,74244.5,0.69,-16.13,-16.83,0,*7E
1535508495.2,2228,18.75,74244.8,0.69,-16.23,-16.97,0,*77
1535508496.41,2229,18.75,74246.3,0.69,-16.37,-17.03,0,*7F
1535508497.67,2230,18.75,74244.0,0.67,-16.51,-17.17,0,*7C
1535508498.88,2231,18.75,74244.3,0.69,-16.45,-17.03,0,*73
1535508500.1,2232,18.75,74242.0,0.69,-16.55,-17.11,0,*72
1535508501.28,2233,18.75,74242.0,0.69,-16.37,-16.89,0,*77
1535508502.52,2234,18.75,74244.5,0.67,-16.17,-16.79,0,*73
1535508503.7,2235,18.75,74240.5,0.69,-16.37,-16.89,0,*71
1535508504.9,2236,18.75,74242.3,0.69,-15.99,-16.69,0,*7B
1535508506.09,2237,18.75,74240.3,0.69,-15.95,-16.75,0,*7B
1535508507.27,2238,18.75,74246.3,0.69,-15.99,-16.97,0,*74
1535508508.44,2239,18.75,74240.3,0.69,-15.99,-16.83,0,*70